Find Starlink 2420

NORAD ID: 47831 Int'l Des: 2021-018 Owner: SPXS Country: US Constellation: starlink operational
LEOCIRCULARSTARLINK_TYPE

Current View

Loading 3D Globe...

About Starlink 2420

Description loading...

Upcoming Passes

Passes for default location (London). Set your location on the main map for personalized predictions.

Altitude History

Loading altitude history...

Two-Line Element Set

1 47831U 21018AW 26150.60968937 .00010268 00000-0 34185-3 0 9998
2 47831 53.1583 221.6562 0001238 80.9012 279.2129 15.31730973289312
Epoch: May 30, 2026 • Age: 23 hours

Current Status

Altitude 474.6 km
Velocity 7.63 km/s
Sub-Earth Point -14.17°S, 106.51°E
Launch Date Mar 11, 2021
Age 5.2 years
Type internet

Technical Details

Classification Payload
Mass 260.00 kg
Dry Mass 248.00 kg
Total Mass 260.00 kg
Length 0.20 m
Diameter 2.80 m
Span 9.00 m
Shape Box + pan
Manufacturer SPXS
Bus Type Starlink
Phase Status In Orbit
Owner/State SPXS/US

Most Searched